Location: Freistadt
(48.5112°N, 14.5013°E)
Time: 09:33:13
(UTC+01:00)

N. Korean satellite - Pass Details

Date: 28 November 2022
Orbit: 407 x 442 km, 97.3° (Epoch: 04 February)

Event Time Altitude Azimuth Distance (km) Brightness Sun altitude
Rises 06:48:23 0° 354° (N) 2,531 9.9 -6.7°
Reaches altitude 10° 06:51:30 10° 323° (NW) 1,647 8.7 -6.2°
Maximum altitude 06:52:57 12° 299° (WNW) 1,512 8.4 -6.0°
Drops below altitude 10° 06:54:23 10° 275° (W) 1,638 8.7 -5.8°
Sets 06:57:29 0° 244° (WSW) 2,502 9.8 -5.3°
